Vertical_Velocity
-19 -2 -0 -4 -14 -1 -10 -5 -1 5 -2 -5 4 -2 -3 -2 -4 7 -5 -2 -5 -8
-10 1 -14 -0 7 -1 -6 -2 -4 6 3 -3 -2 -3 -0 5 7 7 1 -3 5 1
-9 4 1 0 5 15 13 3 14 6 2 5 7 2 0 -0 6 4 5 2 3 2
5 -0 -8 2 0 1 0 -2 2 2 4 4 0 1 3 5 1 1 6 7 3 6
-7 -1 6 2 3 2 0 -2 -2 -3 -4 2 3 4 1 -3 3 3 -2 4 1 -1
-10 3 4 2 1 -4 -0 -0 -5 3 4 -2 -3 -3 -4 -4 -3 -2 -2 -1 -0 5
3 5 6 -3 4 0 1 2 5 6 -4 -2 3 0 -3 4 0 5 9 4 5 -3
2 2 1 3 -0 -0 0 -5 -6 1 10 6 -1 -1 -4 -3 0 2 2 -0 -3 -1
-3 3 -2 -1 -4 -2 -3 -2 2 1 -3 5 4 -1 6 5 2 -6 1 6 -4 1
-7 -0 5 0 -2 -1 -3 -8 -1 1 2 -2 -5 -2 -4 6 2 4 2 0 3 2
-7 -16 -8 3 -4 -1 -0 2 -3 -1 -4 -2 6 -1 -5 -13 4 3 2 0 10 -2
7 11 -0 2 -3 2 1 3 -3 2 -0 -10 7 -6 -5 1 -3 4 3 0 1 -2
-2 -7 -1 -6 -18 -6 -3 -4 -10 -4 1 9 -4 7 -2 -10 -6 -0 -5 -1 -1 8
6 0 -1 -1 -18 -11 0 3 -4 -1 2 3 0 5 -6 1 2 1 -6 -9 18 9
Height
3064 3067 3073 3076 3081 3083 3086 3086 3088 3089 3092 3097 3098 3100 3105 3107 3105 3103 3105 3106 3107 3108
3062 3065 3070 3074 3078 3080 3082 3083 3084 3086 3089 3093 3094 3095 3098 3097 3097 3098 3099 3099 3101 3102
3062 3065 3069 3071 3075 3077 3078 3079 3082 3084 3086 3087 3089 3091 3090 3090 3091 3091 3091 3093 3093 3096
3061 3065 3070 3072 3072 3071 3073 3073 3075 3077 3079 3080 3080 3081 3081 3081 3083 3083 3084 3086 3086 3088
3060 3066 3067 3068 3068 3069 3069 3070 3070 3072 3072 3073 3073 3073 3073 3073 3074 3074 3076 3078 3078 3079
3062 3063 3064 3063 3061 3062 3062 3063 3064 3065 3063 3064 3064 3065 3065 3066 3066 3067 3067 3068 3069 3070
3059 3059 3057 3056 3056 3055 3056 3055 3056 3054 3054 3053 3054 3054 3054 3054 3056 3056 3057 3058 3059 3061
3052 3052 3050 3049 3048 3048 3047 3046 3047 3045 3045 3043 3044 3044 3043 3044 3045 3046 3046 3047 3047 3048
3045 3044 3043 3041 3039 3038 3039 3038 3037 3034 3033 3033 3033 3033 3034 3032 3033 3033 3034 3036 3036 3038
3036 3035 3033 3031 3031 3030 3028 3027 3026 3024 3022 3022 3022 3021 3021 3021 3021 3021 3021 3023 3025 3025
3027 3024 3024 3022 3021 3020 3019 3017 3016 3013 3011 3010 3009 3007 3009 3009 3009 3010 3010 3012 3013 3012
3018 3014 3011 3012 3011 3010 3007 3003 3003 3001 3001 2998 2997 2997 2996 2996 2997 2997 2997 2998 2999 3001
3009 3006 3002 3000 3001 3001 2996 2992 2988 2989 2988 2986 2984 2983 2984 2985 2987 2982 2985 2986 2987 2988
2998 2993 2990 2987 2987 2990 2984 2979 2977 2974 2973 2973 2970 2970 2971 2972 2971 2972 2974 2974 2976 2976